International Virtual Aviation Organisation

Russian Federation and Kazakhstan MCD

 

Карточка аэропорта UHMA

Внимание!
Информация на этой странице в стадии наполнения.
Если вы не увидели какой-то информации, или заметили неточность - пожалуйста сообщите нам!
Спасибо!
Команда RU-STAFF
Название аэропортаУгольный
Название аэропорта (англ.)Ugolny
Превышение194 ft. (59.1 m.)
Координаты64°44.1', 177°44.28'
Высота перехода1600m
Эшелон переходаQFE>=755mm:FL070; QFE<755=>728:FL080; QFE<728:FL090
Коды ответчика6501-6537
Зона ОрВДМагадан РПИ (UHMM)
Данные METARUHMA 282000Z 00000MPS CAVOK M23/M26 Q1028 R01/////// NOSIG RMK TDZ R01/00000G01MPS END R01/34001G02MPS QFE767/1023
Проноз погоды (TAF)UHMA 281948Z 2821/2921 11008G14MPS 9999 SCT030 TEMPO 2900/2918 13013G19MPS 2100 BR DRSN SCT005 BKN020 FM291800 12015G20MPS 5000 BLSN SCT005 BKN020
NOTAMshow/hide NOTAM
AWOS   TABLE

Информация о ВПП


Диспетчерские позиции

Позывной Наименование органа УВД Частота
UHMA_APPАнадырь-Подход124.0
UHMA_TWRАнадырь-Старт124.0



Спутниковое изображение